Ostend, Belgium

11:22 PM CEST on July 26, 2017 (GMT +0200)
Ostend

Weather History for EBOS - November, 2012

Change the Weather History Date:

Saturday, November 17, 2012

  Actual Average Record
Temperature  
Mean Temperature 42 °F -  
Max Temperature 48 °F 46 °F 59 °F (2015)
Min Temperature 36 °F 36 °F 30 °F (1998)
Degree Days  
Heating Degree Days 23    
Moisture  
Dew Point 40 °F    
Average Humidity 90    
Maximum Humidity 93    
Minimum Humidity 81    
Precipitation  
Precipitation 0.12 in - - ()
Sea Level Pressure  
Sea Level Pressure 29.80 in    
Wind  
Wind Speed 9 mph ()    
Max Wind Speed 13 mph    
Max Gust Speed -    
Visibility 2.3 miles    
Events Fog , Rain    
Averages and records for this station are not official NWS values.
T = Trace of Precipitation, MM = Missing Value Source: Averaged Metar Reports

Daily Weather History Graph

Daily Weather History Graph

Search for Another Location

Airport or City:

Trip Planner

Search our weather history database for the weather conditions in past years. The results will help you decide how hot, cold, wet, or windy it might be!

Date:

Astronomy

Nov. 17, 2012 Rise Set
Actual Time 8:09 AM CET 4:57 PM CET
Civil Twilight 7:32 AM CET 5:34 PM CET
Nautical Twilight 6:51 AM CET 6:14 PM CET
Astronomical Twilight 6:12 AM CET 6:54 PM CET
Moon 11:44 AM CET (11/17) 8:48 PM CET (11/17)
Length of Visible Light 10h 01m
Length of Day
8h 47m
Waxing Crescent, 18% of the Moon is Illuminated
Nov 17
Waxing Crescent
Nov 20
First Quarter
Nov 28
Full
Dec 6
Last Quarter
Dec 13
New

Hourly Weather History & Observations

Time (CET) Temp. Windchill Dew Point Humidity Pressure Visibility Wind Dir Wind Speed Gust Speed Precip Events Conditions
12:20 AM 37.4 °F 30.8 °F 33.8 °F 87% 29.86 in 4.3 mi SE 9.2 mph - N/A   Partly Cloudy
12:50 AM 37.4 °F 30.3 °F 33.8 °F 87% 29.83 in 4.3 mi SE 10.4 mph - N/A   Partly Cloudy
1:00 AM 38 °F - 34 °F 81% 29.86 in 4 mi SE 11.2 mph - -   Scattered Clouds
1:20 AM 37.4 °F 32.1 °F 33.8 °F 87% 29.86 in 4.3 mi South 6.9 mph - N/A   Partly Cloudy
1:50 AM 37.4 °F 31.4 °F 33.8 °F 87% 29.83 in 5.0 mi SSE 8.1 mph - N/A   Partly Cloudy
2:20 AM 37.4 °F 31.4 °F 33.8 °F 87% 29.83 in 5.0 mi SSE 8.1 mph - N/A   Partly Cloudy
2:50 AM 37.4 °F 31.4 °F 33.8 °F 87% 29.83 in 5.0 mi SSE 8.1 mph - N/A   Partly Cloudy
3:20 AM 39.2 °F 32.5 °F 35.6 °F 87% 29.80 in 4.3 mi South 10.4 mph - N/A   Scattered Clouds
3:50 AM 39.2 °F 32.5 °F 37.4 °F 93% 29.80 in 1.6 mi South 10.4 mph - N/A   Mostly Cloudy
4:00 AM 39 °F - 37 °F 90% 29.81 in 2 mi South 11.2 mph - -   Mist
4:20 AM 39.2 °F 32.0 °F 37.4 °F 93% 29.80 in 0.9 mi South 11.5 mph - N/A   Mostly Cloudy
4:50 AM 39.2 °F 31.6 °F 37.4 °F 93% 29.80 in 1.0 mi South 12.7 mph - N/A   Mostly Cloudy
5:20 AM 39.2 °F 32.5 °F 37.4 °F 93% 29.80 in 1.1 mi South 10.4 mph - N/A   Mostly Cloudy
5:50 AM 39.2 °F 32.0 °F 37.4 °F 93% 29.80 in 1.2 mi SSW 11.5 mph - N/A   Mostly Cloudy
6:20 AM 39.2 °F 32.0 °F 37.4 °F 93% 29.80 in 0.9 mi South 11.5 mph - N/A   Mostly Cloudy
6:50 AM 39.2 °F 33.0 °F 37.4 °F 93% 29.80 in 0.6 mi South 9.2 mph - N/A   Mostly Cloudy
7:00 AM 39 °F - 37 °F 89% 29.82 in 1 mi South 8.9 mph - -   Mist
7:20 AM 39.2 °F 33.0 °F 37.4 °F 93% 29.80 in 0.5 mi South 9.2 mph - N/A Fog Fog
7:50 AM 39.2 °F 32.5 °F 37.4 °F 93% 29.80 in 0.4 mi South 10.4 mph - N/A Fog Fog
8:20 AM 39.2 °F 32.0 °F 37.4 °F 93% 29.80 in 0.6 mi South 11.5 mph - N/A Fog Fog
8:50 AM 41.0 °F 34.3 °F 37.4 °F 87% 29.80 in 0.9 mi South 11.5 mph - N/A   Mostly Cloudy
9:20 AM 41.0 °F 34.7 °F 37.4 °F 87% 29.80 in 1.2 mi South 10.4 mph - N/A   Mostly Cloudy
9:50 AM 41.0 °F 34.3 °F 37.4 °F 87% 29.80 in 1.4 mi South 11.5 mph - N/A   Mostly Cloudy
10:00 AM 40 °F - 38 °F 90% 29.81 in 1 mi South 11.2 mph - -   Mist
10:20 AM 41.0 °F 33.9 °F 39.2 °F 93% 29.80 in 2.2 mi South 12.7 mph - N/A   Mostly Cloudy
10:50 AM 41.0 °F 35.2 °F 39.2 °F 93% 29.80 in 2.8 mi South 9.2 mph - N/A   Mostly Cloudy
11:20 AM 42.8 °F 37.5 °F 39.2 °F 87% 29.80 in 2.8 mi South 9.2 mph - N/A   Mostly Cloudy
11:50 AM 42.8 °F 37.5 °F 41.0 °F 93% 29.80 in 2.8 mi South 9.2 mph - N/A   Mostly Cloudy
12:20 PM 42.8 °F 37.5 °F 41.0 °F 93% 29.80 in 2.8 mi South 9.2 mph - N/A   Mostly Cloudy
12:50 PM 44.6 °F 39.2 °F 41.0 °F 87% 29.80 in 2.8 mi South 10.4 mph - N/A   Mostly Cloudy
1:00 PM 44 °F - 41 °F 87% 29.80 in 3 mi South 8.9 mph - -   Mist
1:20 PM 44.6 °F 39.2 °F 41.0 °F 87% 29.77 in 2.8 mi South 10.4 mph - N/A   Mostly Cloudy
1:50 PM 44.6 °F 39.2 °F 41.0 °F 87% 29.77 in 2.8 mi South 10.4 mph - N/A   Mostly Cloudy
2:20 PM 44.6 °F 38.8 °F 42.8 °F 93% 29.77 in 2.8 mi South 11.5 mph - N/A   Mostly Cloudy
2:50 PM 44.6 °F 39.7 °F 42.8 °F 93% 29.77 in 2.5 mi South 9.2 mph - N/A   Mostly Cloudy
3:20 PM 46.4 °F 41.5 °F 42.8 °F 87% 29.77 in 2.2 mi South 10.4 mph - N/A   Mostly Cloudy
3:50 PM 46.4 °F 41.5 °F 42.8 °F 87% 29.77 in 2.2 mi South 10.4 mph - N/A   Mostly Cloudy
4:00 PM 46 °F - 43 °F 85% 29.79 in 2 mi South 8.9 mph - -   Mist
4:20 PM 46.4 °F 41.5 °F 42.8 °F 87% 29.77 in 2.2 mi South 10.4 mph - N/A   Mostly Cloudy
4:50 PM 46.4 °F 41.5 °F 42.8 °F 87% 29.77 in 2.2 mi South 10.4 mph - N/A   Mostly Cloudy
5:20 PM 46.4 °F 41.9 °F 42.8 °F 87% 29.77 in 2.2 mi South 9.2 mph - N/A   Mostly Cloudy
5:50 PM 46.4 °F 42.4 °F 44.6 °F 93% 29.77 in 2.2 mi South 8.1 mph - N/A   Mostly Cloudy
6:20 PM 46.4 °F 42.4 °F 44.6 °F 93% 29.77 in 2.2 mi South 8.1 mph - N/A   Mostly Cloudy
6:50 PM 46.4 °F 42.4 °F 44.6 °F 93% 29.80 in 2.2 mi South 8.1 mph - N/A   Mostly Cloudy
7:00 PM 47 °F - 44 °F 87% 29.80 in 2 mi South 6.7 mph - -   Mist
7:20 PM 46.4 °F 42.4 °F 44.6 °F 93% 29.80 in 2.5 mi South 8.1 mph - N/A   Mostly Cloudy
7:50 PM 46.4 °F 42.9 °F 44.6 °F 93% 29.80 in 2.5 mi SSW 6.9 mph - N/A   Mostly Cloudy
8:20 PM 46.4 °F 42.9 °F 44.6 °F 93% 29.80 in 1.2 mi SSW 6.9 mph - N/A   Light Drizzle
8:50 PM 46.4 °F 43.5 °F 44.6 °F 93% 29.80 in 1.0 mi SSW 5.8 mph - N/A Rain Rain
9:20 PM 46.4 °F 44.3 °F 44.6 °F 93% 29.80 in - SW 4.6 mph - N/A Rain Light Drizzle
9:50 PM 48.2 °F - 44.6 °F 87% 29.80 in 2.2 mi West 3.5 mph - N/A Rain Rain
10:00 PM 47 °F - 45 °F 88% 29.83 in 2 mi West 2.2 mph - - Rain Heavy Rain
10:20 PM 48.2 °F - 44.6 °F 87% 29.83 in 3.7 mi North 8.1 mph - N/A Rain Light Rain
10:50 PM 48.2 °F - 44.6 °F 87% 29.83 in 2.2 mi NNW 6.9 mph - N/A Rain Light Rain
11:20 PM 48.2 °F - 44.6 °F 87% 29.83 in 2.8 mi NNW 5.8 mph - N/A   Mostly Cloudy
11:50 PM 48.2 °F - 44.6 °F 87% 29.83 in - NNW 6.9 mph - N/A   Mostly Cloudy